Location: Vinland
(47.7731°N, 122.6974°W)
Time: 02:59:27
(UTC+00:00)

S-56A Canister/Altair - Pass Details

Date: 02 April 2023
Orbit: 639 x 2492 km, 38.9° (Epoch: 31 May)

Event Time Altitude Azimuth Distance (km) Brightness Sun altitude
Rises 08:14:35 0° 278° (W) 5,844 12.1 -37.3°
Reaches altitude 10° 08:20:17 10° 261° (W) 5,033 11.5 -37.3°
Enters shadow 08:23:38 14° 248° (WSW) 4,728 11.3 -37.3°
